This is the latest recevied weather packets stored in our database for station/object DL7HMX-13. If no packets are shown the sender has not sent any weather packets the latest 10 day(s).
| Time | Temp. | Humidity | Pressure | Rain* | Wind** | Luminosity | Snow |
|---|---|---|---|---|---|---|---|
| 1777743617 | 22.22° C | 26% | 1017.8 hPa | 0 mm | - | 24 W/m² | - |
| 1777743021 | 22.22° C | 24% | 1017.8 hPa | 0 mm | - | 28 W/m² | - |
| 1777742423 | 22.78° C | 24% | 1017.8 hPa | 0 mm | - | 40 W/m² | - |
| 1777741825 | 23.33° C | 24% | 1017.9 hPa | 0 mm | - | 55 W/m² | - |
| 1777741228 | 23.89° C | 23% | 1017.8 hPa | 0 mm | - | 66 W/m² | - |
| 1777740631 | 25° C | 23% | 1017.9 hPa | 0 mm | - | 85 W/m² | - |
| 1777740018 | 25° C | 23% | 1018 hPa | 0 mm | - | 130 W/m² | - |
| 1777739420 | 25° C | 22% | 1018.1 hPa | 0 mm | - | 141 W/m² | - |
| 1777738823 | 25.56° C | 22% | 1018.2 hPa | 0 mm | - | 153 W/m² | - |
| 1777738226 | 25° C | 22% | 1018.4 hPa | 0 mm | - | 193 W/m² | - |
| 1777737630 | 25.56° C | 22% | 1018.4 hPa | 0 mm | - | 221 W/m² | - |
| 1777737016 | 25.56° C | 22% | 1018.5 hPa | 0 mm | - | 248 W/m² | - |
| 1777736419 | 25.56° C | 21% | 1018.6 hPa | 0 mm | - | 275 W/m² | - |
| 1777735822 | 25.56° C | 21% | 1018.8 hPa | 0 mm | - | 301 W/m² | - |
| 1777735226 | 25.56° C | 23% | 1018.9 hPa | 0 mm | - | 327 W/m² | - |
| 1777734628 | 25.56° C | 22% | 1019 hPa | 0 mm | - | 353 W/m² | - |
| 1777734030 | 25.56° C | 22% | 1019.1 hPa | 0 mm | - | 378 W/m² | - |
| 1777733419 | 25.56° C | 22% | 1019.3 hPa | 0 mm | - | 407 W/m² | - |
| 1777732820 | 25.56° C | 23% | 1019.4 hPa | 0 mm | - | 435 W/m² | - |
| 1777732219 | 25.56° C | 24% | 1019.4 hPa | 0 mm | - | 464 W/m² | - |
| 1777731625 | 26.11° C | 24% | 1019.6 hPa | 0 mm | - | 492 W/m² | - |
| 1777731028 | 26.11° C | 23% | 1019.7 hPa | 0 mm | - | 517 W/m² | - |
| 1777730431 | 26.11° C | 24% | 1019.7 hPa | 0 mm | - | 539 W/m² | - |
| 1777729819 | 26.67° C | 23% | 1019.9 hPa | 0 mm | - | 559 W/m² | - |
| 1777729221 | 25.56° C | 24% | 1020.1 hPa | 0 mm | - | 576 W/m² | - |
* Rain latest hour (hover to see other rain measurements)
** Current wind speed in m/s (hover to see current wind gust speed)